Theta_e
310 310 310 310 311 311 311 311 311 312 312 312 312 312 313 313 313 313 313 314 315 313 312 314 315 315 317 319 320 319 314 315 317 316 316 318 316 317 318 318 318 317 317 317 317
310 310 310 310 311 311 311 312 312 312 312 312 312 312 312 312 313 314 315 315 314 312 311 313 316 317 317 319 320 317 314 316 316 315 315 315 315 315 315 315 315 316 317 317 317
310 310 310 311 311 312 312 312 312 312 312 311 311 311 312 312 313 316 313 313 313 313 314 314 316 317 317 317 319 318 315 316 318 318 317 317 317 316 315 313 316 316 317 317 317
310 311 311 311 312 311 311 311 311 311 310 311 312 313 315 315 311 314 313 314 313 313 313 314 315 316 316 315 318 317 318 318 318 317 317 317 317 316 316 316 315 316 316 317 317
311 311 311 311 311 310 310 309 310 311 313 315 317 317 318 317 317 315 314 313 312 313 312 313 315 316 315 315 315 315 316 317 317 317 316 316 315 315 316 316 316 316 316 316 316
310 309 309 309 308 309 309 311 313 316 317 318 318 318 317 315 318 318 317 314 311 312 313 314 315 315 315 315 314 314 315 315 315 315 315 314 314 315 315 316 316 316 316 315 316
310 310 310 310 311 312 314 315 316 317 318 317 317 317 317 318 318 318 318 316 312 312 313 314 315 315 314 313 315 315 313 311 313 314 313 315 312 312 316 316 316 317 317 316 316
316 315 314 314 314 314 315 316 316 316 316 316 317 318 316 317 316 316 315 314 313 312 313 315 315 315 314 314 314 314 312 312 312 314 314 313 312 312 316 316 317 316 316 315 310
314 314 314 315 315 315 315 315 315 316 316 317 317 315 315 315 314 314 313 312 312 312 312 313 314 313 314 312 311 311 310 312 313 314 313 312 311 312 316 315 315 314 315 311 312
314 314 313 313 313 314 315 316 317 317 318 318 316 314 315 314 314 313 312 311 312 311 311 312 312 310 309 309 310 312 312 314 314 315 314 313 311 310 315 313 314 314 311 310 310
315 315 315 315 315 316 316 319 318 319 317 319 317 316 314 314 313 312 312 311 312 312 311 312 309 310 309 309 309 313 314 313 312 313 313 313 312 312 313 313 312 312 309 308 307
316 316 316 316 318 319 319 321 319 317 318 318 318 318 317 316 315 314 313 312 312 311 311 311 311 310 311 312 313 313 313 312 312 313 313 312 311 311 312 312 312 308 308 307 306
318 317 317 318 320 320 320 321 321 321 318 321 320 320 318 318 316 315 313 312 311 311 311 311 313 312 313 315 314 314 313 314 314 311 310 311 310 311 312 308 307 306 307 306 305
322 318 318 319 319 319 321 321 322 320 318 319 317 315 315 314 314 313 311 313 313 312 312 312 313 314 314 314 313 314 313 312 312 311 312 311 311 311 309 307 305 305 304 304 304
325 319 318 319 320 322 321 321 321 317 326 315 311 311 310 313 310 309 311 312 313 313 313 315 312 311 312 313 312 313 310 311 311 310 311 311 311 310 309 308 306 304 303 302 302
325 320 320 320 320 322 322 321 318 321 325 316 309 311 309 309 309 309 309 310 311 311 311 312 310 310 310 311 310 309 311 310 309 309 313 312 311 312 309 308 306 304 302 301 300
322 320 320 320 321 321 322 317 320 322 320 313 311 310 310 309 309 309 309 309 309 310 311 311 310 310 310 311 309 310 310 313 314 312 315 312 311 312 309 307 306 303 301 300 299
321 320 320 320 320 321 321 318 320 321 322 314 311 311 311 310 310 310 310 311 309 311 312 315 316 310 310 312 313 309 310 312 314 317 315 310 314 312 307 305 303 301 300 299 299
317 316 316 319 317 319 318 316 319 319 320 323 319 316 317 315 314 313 311 313 313 309 315 314 314 310 310 311 311 313 312 311 313 301 307 311 310 309 306 303 302 301 300 299 298
316 316 316 314 313 316 314 314 317 318 318 318 320 320 321 321 320 318 319 314 313 311 312 311 312 309 309 310 308 311 309 312 309 308 307 310 310 310 307 303 301 300 299 299 298
317 317 317 315 313 315 316 314 315 316 317 317 317 319 319 319 318 320 317 312 310 310 310 311 310 309 309 311 311 309 309 310 310 310 311 309 310 306 306 302 300 300 300 299 298
316 313 315 316 315 315 316 315 316 315 316 315 315 315 317 317 316 316 317 312 311 311 311 311 311 309 311 309 310 310 310 310 314 312 308 310 311 304 301 300 301 300 300 298 298
311 310 310 314 316 315 314 315 314 314 314 315 315 315 314 314 315 314 312 310 311 309 312 312 309 305 304 308 308 311 310 310 310 309 307 313 310 303 302 300 300 299 296 294 293
307 308 309 311 313 314 315 314 315 313 314 314 314 313 312 312 312 311 311 309 306 307 309 310 309 304 303 308 308 308 307 306 306 305 306 308 307 306 304 301 295 294 293 292 292
306 306 308 308 310 311 312 313 314 312 312 313 313 313 312 312 311 311 309 306 303 305 304 307 308 309 304 304 305 304 305 303 303 303 302 304 301 301 300 298 293 292 291 291 290
305 304 304 304 307 310 311 311 311 311 310 310 310 309 310 309 307 306 305 306 305 301 301 300 300 299 297 302 301 301 300 300 300 301 300 301 301 298 294 293 291 291 291 290 290
302 303 303 303 302 306 308 309 308 307 303 304 307 305 306 303 302 301 301 300 301 300 300 299 297 294 296 298 295 294 297 298 298 298 298 298 297 292 293 293 291 291 291 290 290
Wind_Speed
4 4 4 4 4 4 5 5 6 6 7 8 9 10 12 13 14 16 18 9 8 7 5 5 4 1 0 1 2 1 3 2 3 6 4 5 5 4 4 10 13 7 14 18 21
6 6 6 6 6 6 7 7 8 8 9 10 11 12 12 14 16 17 8 5 4 2 4 2 4 1 1 2 4 3 3 6 4 1 3 5 5 9 6 19 19 19 13 10 14
8 8 8 8 8 9 9 9 9 9 10 11 11 12 13 14 15 2 3 3 4 4 3 3 4 4 3 4 6 5 5 3 9 12 5 3 10 9 7 8 18 18 16 20 16
10 10 10 10 10 10 11 11 11 11 11 11 12 12 12 10 4 1 2 3 4 5 6 5 5 3 3 3 10 4 12 13 8 13 8 3 5 8 19 31 27 26 24 22 20
13 12 12 12 12 12 12 12 12 12 12 12 12 12 11 6 10 13 11 11 11 11 9 7 6 6 3 4 6 5 4 9 14 18 18 15 10 11 26 28 20 14 15 13 12
16 14 14 13 13 13 13 13 12 12 12 13 13 12 10 7 10 11 10 10 9 8 7 9 4 3 7 4 1 5 6 13 17 26 23 11 9 3 16 18 16 14 14 11 15
17 16 15 13 13 13 13 13 13 13 12 12 12 12 13 18 15 13 13 11 10 9 10 7 11 9 2 4 4 5 5 8 19 16 8 8 6 8 13 10 15 17 22 27 22
17 17 17 15 14 14 14 13 13 13 13 12 12 10 9 12 13 13 13 12 10 10 11 11 11 11 5 4 6 3 1 3 6 3 1 4 9 8 14 18 30 25 20 17 16
16 16 16 16 15 14 13 13 12 13 13 13 10 7 8 9 9 10 10 10 6 9 9 9 8 5 2 4 4 2 4 5 7 2 3 2 7 12 22 22 27 21 16 15 20
16 16 15 15 14 14 13 13 13 13 14 13 10 5 13 8 7 7 7 9 5 5 4 4 4 2 2 4 5 5 3 4 4 4 2 5 9 9 32 14 25 20 12 24 24
16 15 14 14 13 13 11 9 8 5 10 10 6 6 4 8 8 7 7 10 7 5 5 7 4 7 11 10 5 2 4 4 6 9 4 7 6 10 32 21 17 9 24 26 27
18 16 15 14 12 12 10 5 7 5 10 17 21 23 21 18 7 10 10 9 8 6 5 2 6 11 7 4 7 7 5 6 5 4 2 5 9 16 19 11 8 31 23 24 25
20 18 16 14 13 13 11 10 8 8 5 10 20 16 19 21 10 11 16 9 6 6 7 7 6 9 6 4 7 2 5 2 6 3 5 3 6 8 5 24 30 27 28 25 26
23 21 19 15 14 12 11 9 9 3 4 5 5 5 9 8 3 9 18 7 4 9 6 6 7 6 7 6 7 5 4 5 4 2 3 3 4 8 6 12 16 18 26 26 25
31 26 22 20 9 14 6 9 7 3 5 1 4 7 9 8 10 4 14 7 5 5 6 6 5 3 3 6 7 5 3 3 2 2 3 5 3 6 7 7 7 13 23 25 24
35 28 23 22 22 14 12 10 9 3 11 3 5 5 5 4 3 5 3 4 3 1 2 6 0 3 7 2 4 4 1 3 3 3 0 5 6 5 4 7 7 13 21 21 21
28 23 27 25 25 23 18 15 2 6 1 4 4 5 3 5 4 5 5 5 5 5 5 4 7 1 3 3 4 4 4 3 3 1 5 0 3 6 5 9 15 17 21 19 18
16 17 19 28 27 20 22 3 7 4 3 3 4 6 7 7 6 6 5 3 6 2 3 5 2 9 4 5 5 5 7 4 5 3 3 7 3 3 10 25 26 26 22 17 15
8 4 4 12 3 15 10 2 5 5 1 3 4 3 4 3 4 4 7 5 4 10 6 4 2 1 3 3 6 3 4 4 2 1 3 4 4 5 9 11 17 19 17 14 11
12 10 10 10 4 10 3 4 3 1 3 4 3 2 4 4 3 2 2 2 4 2 2 3 2 3 1 2 3 2 1 1 2 1 4 4 3 5 8 8 6 9 11 9 7
19 11 14 17 11 11 3 6 5 8 4 3 2 4 4 3 1 4 6 2 5 2 5 3 3 3 4 3 5 1 1 2 2 5 4 2 4 4 10 8 8 9 9 6 4
12 3 16 23 11 3 4 6 7 7 9 5 3 3 5 5 4 0 3 4 11 2 4 2 3 4 7 5 2 4 3 5 3 4 3 2 7 7 10 12 11 9 9 5 4
10 5 15 23 6 9 5 5 8 5 5 7 9 7 3 6 3 6 5 1 6 4 4 2 1 2 8 4 3 2 3 4 4 2 5 5 8 7 11 9 8 10 8 7 5
5 2 7 17 9 4 7 8 10 12 5 7 3 6 4 5 5 5 6 1 1 4 5 3 5 7 7 3 3 3 4 4 5 2 3 9 8 19 13 1 8 9 9 7 4
10 5 7 4 7 11 5 6 9 7 8 15 6 9 8 5 7 7 6 4 2 2 2 3 6 4 3 6 5 5 10 4 5 10 6 19 14 16 10 1 11 14 10 5 5
9 5 5 1 8 10 11 14 13 9 9 6 10 10 15 10 9 5 7 5 5 2 2 3 3 2 3 5 6 8 13 8 12 16 12 14 20 3 3 7 12 9 4 8 12
18 9 5 5 4 7 13 16 8 8 2 2 10 6 5 4 11 12 10 9 7 6 4 4 4 3 5 2 4 8 10 14 10 6 6 8 9 2 3 3 8 3 4 12 5
Wind_Direction
289 295 298 302 306 312 314 316 317 318 319 318 319 321 320 318 317 312 310 297 290 276 247 223 229 225 212 172 291 285 59 264 265 8 320 22 10 29 296 262 277 276 279 285 288
279 284 290 296 299 301 303 306 310 313 314 314 315 317 318 319 319 314 311 308 284 223 194 190 99 34 279 240 186 133 132 232 156 171 312 328 7 333 321 291 282 285 283 329 309
274 279 283 286 288 291 292 296 300 303 306 307 309 313 318 323 326 350 20 96 121 148 175 176 205 239 226 236 205 196 201 226 304 331 324 319 319 322 311 282 282 290 297 303 307
268 275 279 282 284 286 289 294 298 301 303 304 306 309 313 316 301 317 335 275 259 231 224 239 220 188 226 227 221 221 236 253 275 305 309 287 271 292 273 268 288 292 291 291 291
266 270 273 277 280 284 287 292 296 301 305 306 307 307 309 287 263 273 275 278 275 260 256 222 206 203 230 249 334 218 252 286 288 287 291 288 267 262 278 293 302 306 304 300 296
268 267 269 272 276 281 286 291 295 298 301 301 301 301 294 253 272 274 276 272 264 248 233 202 193 265 293 273 245 308 315 297 294 280 272 260 268 297 285 326 311 306 316 323 322
272 269 267 268 273 276 280 286 291 293 294 295 295 293 277 269 266 266 274 273 255 234 218 200 233 257 313 313 315 311 321 308 269 272 220 217 304 225 295 330 305 312 321 319 316
267 269 270 269 268 271 277 282 287 289 290 290 291 286 262 265 261 261 261 257 240 235 231 218 231 247 245 295 341 287 313 311 287 102 164 155 271 263 287 295 296 308 321 321 68
263 265 268 269 269 270 275 280 282 284 284 282 282 258 263 248 247 252 245 241 227 222 227 228 225 204 184 104 355 286 232 209 310 315 127 148 256 273 293 289 287 307 323 94 94
263 262 263 266 267 271 277 285 286 279 269 268 243 255 240 232 229 229 215 210 204 182 155 173 169 114 47 109 219 223 232 293 261 266 189 228 249 278 290 294 291 301 94 93 82
257 259 261 263 265 268 276 289 284 269 231 218 174 218 251 234 230 211 193 182 165 169 167 195 135 201 212 203 206 299 249 266 275 279 303 273 304 283 279 294 289 356 108 96 83
257 256 255 257 263 265 270 259 265 277 296 254 253 256 251 252 232 224 204 180 178 194 156 89 224 226 230 216 209 226 225 255 279 323 311 291 296 282 286 286 83 112 94 91 89
252 252 251 252 254 254 248 245 266 295 261 270 242 240 229 234 232 219 196 196 185 185 197 187 221 205 195 263 279 281 236 228 246 309 287 320 293 287 14 85 88 91 101 93 88
248 244 241 240 251 242 235 230 240 259 268 244 220 215 189 162 225 185 187 193 216 201 212 243 230 243 260 235 196 255 222 205 225 100 231 68 281 290 67 85 69 74 85 90 87
240 235 231 228 210 191 202 198 189 163 291 169 161 161 154 168 138 183 197 201 190 179 135 232 169 145 172 229 158 236 114 205 226 191 28 280 95 263 134 84 95 91 86 87 81
243 224 221 219 215 202 196 186 157 104 234 211 140 164 131 170 144 124 156 170 180 178 218 221 42 189 198 177 111 137 36 288 90 124 7 257 162 291 176 170 127 106 99 94 86
230 222 221 222 218 215 206 170 157 214 203 188 193 162 179 161 173 171 160 180 163 136 211 189 222 193 170 111 47 83 68 307 353 3 219 124 133 241 17 97 116 110 98 86 74
198 213 223 225 229 223 205 146 214 187 266 168 134 158 179 153 198 186 143 214 242 240 146 170 291 159 186 179 182 173 165 167 234 222 250 339 261 10 83 96 104 107 102 90 73
175 148 167 161 101 176 170 157 185 204 36 42 32 173 213 174 136 148 196 209 217 179 181 140 151 97 145 168 139 201 177 191 175 72 56 217 104 78 95 91 101 104 100 90 80
204 200 221 213 303 194 90 207 237 161 125 130 142 267 219 19 42 114 238 293 163 141 186 178 187 210 180 117 49 145 260 326 14 293 254 268 264 166 167 141 118 109 116 108 97
193 181 195 214 204 186 190 207 208 216 130 125 197 178 184 148 281 213 212 31 30 130 50 116 124 271 92 188 177 130 209 199 191 159 198 240 244 174 161 150 147 156 151 140 139
190 171 179 181 188 193 201 177 190 162 193 202 176 232 195 150 173 122 264 341 353 348 141 353 121 187 219 264 126 206 213 168 174 255 242 171 268 139 146 157 155 155 165 160 142
163 161 180 193 206 204 182 176 186 161 180 173 191 203 196 157 181 227 204 52 11 49 134 188 6 24 339 6 39 83 121 115 103 121 207 240 251 174 144 150 169 176 166 143 120
134 167 193 222 232 200 195 199 208 204 183 178 165 147 153 163 204 184 207 29 132 166 136 193 173 172 200 160 124 276 169 106 122 160 194 240 296 282 294 201 173 161 143 118 80
187 223 205 195 222 225 211 186 190 180 212 177 202 184 155 186 185 197 191 145 34 199 55 131 189 209 233 148 162 219 260 178 203 236 211 274 265 274 296 105 166 145 120 88 2
187 187 195 285 189 197 202 223 220 206 170 199 214 190 197 212 195 180 154 160 182 163 114 346 190 101 292 181 204 258 257 238 234 248 246 256 267 277 191 123 122 113 77 2 341
207 200 183 210 188 186 218 223 209 173 139 131 193 137 146 141 117 107 96 93 135 144 140 143 129 88 271 76 53 297 245 222 226 200 199 228 241 181 237 206 157 135 337 331 305